Temp_Advection
nan nan nan nan nan nan nan nan nan nan nan nan nan nan nan nan nan nan nan nan nan nan nan nan nan nan nan nan nan nan nan nan nan nan nan nan nan nan nan nan nan nan nan nan nan nan nan
nan -0 -0 -0 -0 -0 -0 -0 -0 0 -0 0 -0 -0 -0 -0 -0 -0 -0 -0 -0 -0 -0 -0 0 0 -1 -1 0 -0 0 0 0 -0 -0 0 0 0 -0 0 0 -0 -0 -1 -1 -1 nan
nan -0 -0 -0 -0 -0 -0 -0 -0 -0 0 -0 -0 -0 -0 -0 -0 -0 -0 0 -0 -0 0 0 0 -0 -2 0 0 0 -0 -0 -0 -0 -0 0 0 0 -0 -0 -0 -0 -0 -1 -1 -0 nan
nan -0 -0 -0 -0 -0 -0 -0 -0 -0 -0 -0 0 -0 -0 -0 -0 -0 -0 -0 0 0 0 0 0 -0 -1 0 0 -0 -0 -0 0 -0 -0 0 0 -0 -0 -0 -1 -1 -0 -0 -0 -1 nan
nan -0 0 0 -0 -0 -0 -0 -0 -0 -0 -0 -0 0 -0 -0 -0 -0 -0 0 -0 -0 0 0 -0 -0 -0 -0 -0 -0 -0 0 0 0 0 0 -1 -1 -1 -1 -0 -1 0 -0 -0 -0 nan
nan -0 0 0 0 0 -0 -0 -0 -0 -0 -0 -0 0 -0 -0 -0 -0 -0 0 0 0 0 -0 -0 -0 -0 -0 -0 -0 0 0 0 0 -0 -1 -2 -1 -1 -0 0 -0 -0 -0 -0 0 nan
nan -0 -0 0 0 0 -0 -0 -0 0 -0 -0 -0 -0 -0 -0 -0 -0 0 0 -0 -0 -2 -0 -0 -0 0 0 -0 -0 0 0 -0 -2 -1 -1 -1 -0 0 -0 -0 -0 0 0 -0 0 nan
nan -0 -0 0 0 0 -0 -0 -0 -0 0 -0 -0 -0 -0 -0 0 -0 0 0 0 -1 -0 0 -0 -0 0 -0 -0 -1 -1 -1 -1 -0 -0 -0 0 0 -0 -0 0 -0 -0 -0 -0 -0 nan
nan -0 -0 0 0 0 0 -0 -0 -0 -0 -0 -0 -0 -0 -0 -0 -0 0 0 0 -1 -0 -0 -0 -0 -0 -0 -1 -1 -0 -0 -0 -0 -0 0 0 -0 -0 -0 -0 0 -0 0 -0 -0 nan
nan -0 -0 0 0 0 0 0 -0 -0 -0 0 -0 -0 -0 -0 0 -0 0 0 0 -0 -0 -0 -0 -0 -0 -0 -0 -0 -0 -0 -0 -0 -0 0 -0 -0 -0 -0 -0 -0 0 -0 0 -0 nan
nan -0 -0 0 0 0 0 0 -0 -0 -0 -0 0 -0 -0 -0 0 0 0 0 0 0 0 -0 -0 -0 -0 -0 -0 -0 -0 -0 -0 -0 0 -0 -0 -0 -0 -0 -0 0 -0 0 0 0 nan
nan -0 -0 -0 0 0 0 0 0 -0 -0 -0 -0 -0 -0 -0 -0 -0 0 0 0 -0 0 -0 -0 -0 -0 -0 -0 -0 -0 -0 -0 -0 -0 0 0 -0 -0 -0 0 0 -0 -0 -0 -0 nan
nan -0 -0 -0 -0 0 0 -0 0 -0 -0 -0 -0 0 -0 -0 -0 -0 -0 0 0 0 -0 0 0 -0 -0 -0 -0 -0 -0 -1 -0 -0 -0 -0 -0 0 -0 -0 -0 -0 -0 -0 -0 -0 nan
nan -0 -0 0 0 0 0 -0 0 -0 -0 -0 -0 0 0 -0 -0 0 -0 0 -0 -0 0 -0 -0 -0 -0 -0 -0 -0 -0 -0 -0 -0 -0 0 -0 -0 -0 -0 0 0 -0 -0 0 -0 nan
nan -0 -0 -0 0 0 0 -0 -0 0 -0 -0 -0 0 0 -0 0 0 0 -0 0 0 -0 -0 -0 -0 0 0 -0 -0 -0 0 -0 -0 -0 0 -0 -0 -0 -0 -0 -0 -0 -0 -0 -0 nan
nan 0 0 0 0 0 0 0 -0 -0 -0 -0 -0 0 0 0 0 -0 0 0 0 0 0 0 0 0 0 0 0 -0 0 0 0 -0 -0 0 -0 -0 0 -0 -1 -0 0 -0 -0 -0 nan
nan 1 -0 -0 0 0 0 0 0 -0 -0 -0 -0 0 0 0 0 0 0 0 0 0 0 -0 0 -0 0 0 0 0 0 -0 0 0 -0 -0 0 -0 0 -0 0 -0 -0 -1 0 0 nan
nan 0 0 0 0 0 0 0 0 -0 -0 -0 0 0 0 0 -0 -0 0 0 0 0 0 -0 -0 -0 -0 0 0 0 0 0 0 0 0 0 -0 0 -0 -0 -0 -0 -0 0 1 0 nan
nan 1 0 0 1 0 0 0 0 -0 -0 -0 0 0 0 0 0 -0 0 0 0 0 0 -0 0 -0 -0 -0 0 0 0 0 0 -0 -0 0 0 -0 -0 0 -0 -0 -0 -0 -0 0 nan
nan 1 0 0 0 1 0 1 1 -0 -0 -0 0 0 0 0 0 -0 -0 0 0 -0 -0 -0 -0 -0 -0 0 -0 0 0 0 0 0 -0 -1 -0 0 1 0 0 0 -0 -0 -1 -0 nan
nan 0 0 0 1 1 0 1 1 0 0 0 0 0 0 0 0 0 0 0 -0 0 -0 0 -0 0 0 0 0 0 0 0 0 -0 -0 0 -0 0 0 0 0 0 0 0 0 0 nan
nan 0 0 0 1 1 1 1 1 0 0 -0 0 -0 -0 0 0 -0 0 -0 -0 0 0 0 0 0 -0 -0 0 0 0 0 0 -0 -0 -0 0 -0 -0 0 0 0 0 0 0 0 nan
nan 0 0 1 2 2 1 1 1 0 0 0 0 -0 0 -0 -0 -0 -0 -0 0 -0 0 -0 -0 -0 0 -0 -0 -0 -0 -0 -0 0 -0 0 1 0 -0 -0 -0 -0 1 1 0 0 nan
nan -0 1 1 2 2 1 1 1 0 0 -0 -0 0 0 0 -0 0 0 0 0 0 -0 0 0 -0 -0 1 -0 -0 -1 -1 -2 -1 -0 -1 -0 0 -0 -0 -0 1 0 -0 0 -0 nan
nan -0 1 1 3 2 0 1 1 1 0 -1 0 0 0 0 0 0 0 -0 0 -0 -0 -0 0 0 -1 -1 -0 0 0 0 -0 -0 -0 -0 -0 0 0 -0 -0 0 -0 -0 0 0 nan
nan 0 1 1 2 2 0 1 1 1 -1 -0 0 -0 1 -1 0 -0 -0 0 -0 0 -0 -0 0 1 0 -0 -0 -0 -0 0 0 -0 -0 -0 0 -0 0 0 -0 1 0 0 0 0 nan
nan 0 2 4 3 0 1 1 1 0 -1 0 0 -0 0 0 0 0 -0 -0 -0 -1 -0 -0 0 0 0 -0 -0 -0 0 0 0 -0 -0 -0 0 -0 -0 0 0 0 0 0 1 -0 nan
nan 1 3 3 1 0 1 1 1 -0 0 -0 0 0 -0 0 0 1 0 -0 -0 -1 -0 -0 -0 0 0 -0 0 0 -0 0 0 -0 0 -0 -1 -0 -0 0 -0 -2 1 -1 -0 0 nan
nan nan nan nan nan nan nan nan nan nan nan nan nan nan nan nan nan nan nan nan nan nan nan nan nan nan nan nan nan nan nan nan nan nan nan nan nan nan nan nan nan nan nan nan nan nan nan
Wind_Speed
9 9 9 6 6 6 7 9 11 13 14 15 15 15 14 14 13 11 12 14 16 21 25 22 14 9 6 11 11 16 14 9 6 3 4 5 7 5 5 4 4 3 1 5 10 13 22
8 8 8 5 5 6 6 8 11 13 14 15 16 15 14 14 11 9 9 11 13 15 15 16 17 10 9 11 15 17 12 7 7 5 5 5 5 6 6 4 3 2 8 11 19 14 21
8 8 8 5 4 4 5 7 9 11 14 15 15 15 14 12 9 7 6 11 14 17 19 13 5 5 28 14 14 15 9 6 7 9 10 6 5 6 4 4 5 2 3 8 13 12 5
9 8 7 3 2 3 4 6 8 10 12 14 14 14 13 10 8 6 6 8 8 6 5 8 9 11 10 15 11 12 11 6 3 10 13 9 9 12 7 4 7 5 5 4 5 13 8
9 9 8 4 1 3 4 7 8 10 12 13 14 13 12 8 6 6 9 9 7 9 6 5 3 6 5 17 23 17 18 15 18 16 18 15 16 12 10 4 4 7 2 2 5 8 4
10 9 8 4 2 3 4 6 9 10 13 13 14 13 11 5 4 7 10 7 9 11 6 6 7 6 11 19 20 11 16 8 13 17 12 12 11 5 6 5 2 1 1 3 2 3 6
9 10 9 7 3 3 4 6 8 10 13 14 13 13 11 4 3 8 12 16 5 9 29 13 18 18 8 5 21 24 12 12 12 13 5 13 9 7 6 6 5 4 3 4 4 2 4
7 9 9 7 5 4 5 6 8 10 13 14 13 12 10 4 1 3 17 6 4 15 14 20 14 14 14 15 12 23 20 10 11 5 3 6 9 2 8 7 4 3 3 3 5 5 4
9 8 10 8 6 5 6 7 9 11 13 14 14 12 9 4 0 1 11 13 18 16 7 6 11 5 5 14 12 19 13 6 9 10 9 6 2 4 4 7 8 2 3 2 5 4 2
10 9 10 9 6 5 6 7 9 11 13 15 15 13 9 5 1 1 5 16 19 5 4 4 4 6 6 4 5 16 14 3 5 4 5 7 3 5 6 7 3 3 2 5 8 6 1
12 9 10 10 6 6 6 8 9 11 13 13 14 12 10 7 3 0 6 20 10 0 2 1 3 5 12 8 4 17 10 12 5 4 3 1 3 6 5 4 1 5 6 9 8 5 3
15 12 10 9 8 6 7 8 9 10 13 14 12 10 10 6 4 2 8 17 5 3 5 2 2 2 4 10 5 7 7 9 5 5 8 3 2 4 1 3 1 4 4 5 3 3 2
17 14 13 12 9 7 6 8 10 11 11 13 12 8 7 6 2 5 12 14 2 4 4 4 3 3 4 4 4 5 5 7 4 3 5 4 2 3 4 4 4 7 5 4 5 3 4
19 16 14 13 11 7 7 7 11 11 10 12 11 6 5 5 2 8 14 3 4 4 3 2 3 5 3 2 3 3 2 3 5 4 3 3 1 4 5 2 2 3 2 4 4 2 6
20 19 17 14 13 10 9 6 11 13 9 10 10 6 5 4 2 9 5 1 3 3 5 7 3 4 2 2 4 3 2 2 1 2 5 3 3 3 4 3 2 3 3 4 2 3 3
24 24 20 16 14 13 10 9 8 13 9 8 8 7 5 2 6 8 3 4 2 3 5 2 4 3 6 5 4 3 4 2 3 3 1 4 2 1 2 1 10 4 1 3 2 1 5
28 26 21 16 15 16 11 15 6 13 7 7 7 4 2 4 4 3 3 4 3 4 4 3 4 4 4 6 5 4 6 2 2 2 4 4 3 2 1 4 0 1 2 5 3 3 4
28 29 21 18 17 17 13 10 8 8 7 6 4 1 2 7 1 2 3 5 5 4 4 2 4 4 5 5 4 4 7 3 6 5 5 3 4 2 1 2 4 3 4 4 4 4 2
29 29 25 22 21 18 16 14 6 6 3 5 4 4 6 11 3 2 2 1 2 4 4 3 3 2 2 5 4 3 5 3 5 4 6 5 0 2 3 4 1 2 3 4 5 3 5
28 29 28 26 21 22 19 17 10 8 0 4 4 1 2 6 3 6 5 5 4 2 4 5 4 4 4 3 2 5 4 4 4 3 4 4 3 6 6 4 4 4 4 5 5 3 3
30 28 29 27 27 27 22 20 11 8 4 4 5 2 3 2 3 2 3 5 5 5 3 6 1 4 7 4 2 5 4 4 2 1 3 3 5 3 1 1 2 4 5 9 8 5 6
31 33 31 30 29 28 24 19 14 13 10 9 4 4 2 2 5 5 1 6 9 4 7 4 4 5 5 7 7 9 7 4 5 3 3 3 2 2 4 0 3 4 7 7 4 3 8
28 35 35 34 32 29 24 19 17 14 9 10 12 9 4 6 4 3 4 5 8 11 2 2 8 5 3 2 9 12 10 11 8 7 3 3 5 3 5 4 3 8 10 14 5 4 8
29 34 39 36 32 27 24 23 23 15 13 15 13 6 8 3 5 5 5 3 4 4 7 3 11 5 9 22 22 17 17 15 13 9 4 5 5 3 3 3 2 5 2 2 7 6 11
28 32 41 36 32 27 28 26 22 15 12 14 18 12 8 2 4 4 8 6 14 9 4 5 3 3 29 8 4 4 3 4 2 4 3 3 5 2 4 3 6 4 6 8 8 8 13
32 34 40 36 32 30 27 27 19 13 13 16 15 20 10 6 7 8 6 8 4 3 3 4 7 30 8 3 3 5 5 4 3 0 4 4 5 3 3 4 6 6 3 8 6 6 15
34 34 39 38 29 30 28 23 19 13 14 13 17 21 16 5 8 13 5 8 10 6 4 8 12 8 4 2 2 3 4 1 5 7 6 3 1 5 4 4 9 4 13 11 6 7 16
32 42 41 34 28 28 25 19 16 12 13 11 17 16 18 6 10 13 10 8 11 11 5 14 7 4 3 3 4 4 3 5 2 3 6 8 9 4 3 2 9 18 8 8 5 5 14
24 45 41 31 28 27 19 16 13 14 10 14 14 13 18 8 4 10 11 10 14 15 10 27 2 7 12 3 1 3 3 2 2 3 1 3 5 5 9 6 0 41 2 22 9 9 8
Wind_Direction
10 7 5 26 52 46 32 25 19 15 14 14 12 12 15 14 15 21 40 54 72 91 106 124 128 116 90 67 16 2 7 17 27 63 117 116 131 117 108 119 132 116 356 44 38 32 68
359 2 5 19 53 48 33 20 15 10 10 11 10 9 13 12 20 34 61 76 93 100 108 106 88 83 88 59 13 2 358 15 42 63 98 108 102 120 99 88 76 95 73 60 31 58 42
354 357 359 11 50 42 24 20 14 11 4 7 8 7 10 11 25 38 86 86 100 109 109 108 45 47 56 35 17 8 0 337 45 72 80 92 94 95 80 90 30 38 74 59 29 1 58
348 348 352 6 43 30 13 10 10 6 4 4 6 7 6 11 28 49 107 115 119 118 94 84 70 91 82 38 17 16 56 45 86 103 92 92 109 84 41 4 34 39 51 29 18 9 9
340 340 342 337 25 7 4 355 360 357 359 1 4 7 6 11 41 81 126 114 110 125 104 58 63 78 46 25 27 38 35 92 105 112 97 94 94 59 30 63 43 14 75 13 336 35 354
335 334 333 331 326 341 351 353 349 353 352 358 359 2 6 28 85 115 145 129 113 126 89 48 65 66 44 24 24 28 43 108 119 115 86 53 62 65 20 51 125 284 5 338 297 344 54
327 329 327 318 291 309 329 339 345 348 347 353 359 358 358 22 76 162 150 132 112 68 63 71 79 82 51 344 38 32 28 88 80 65 74 33 71 84 74 63 135 133 132 213 261 189 114
315 322 321 312 283 290 317 330 340 341 343 348 354 356 358 356 175 190 189 215 183 134 84 67 101 74 53 42 34 33 47 69 52 71 73 53 67 109 95 51 55 91 121 277 292 327 300
296 313 314 310 286 290 311 330 333 334 342 346 348 355 3 355 41 46 204 212 148 129 88 60 75 62 13 35 39 11 30 62 75 61 55 95 113 127 95 48 21 337 142 326 252 291 267
285 306 306 305 284 284 304 322 327 334 342 346 345 350 1 357 297 87 168 165 152 132 94 346 2 11 4 109 59 22 31 33 45 124 118 85 8 80 63 43 51 357 30 331 306 349 279
279 284 294 297 284 276 294 313 323 331 338 346 343 346 352 359 328 198 169 164 153 19 353 16 53 61 59 79 323 5 25 67 71 39 117 163 86 65 59 331 169 236 320 281 279 277 30
277 280 281 280 281 275 289 306 316 331 337 340 347 338 343 348 23 77 158 170 155 49 249 104 87 34 65 36 35 354 38 68 66 51 38 75 106 68 192 290 230 311 305 324 75 107 24
272 276 279 278 271 269 280 303 313 323 333 342 345 327 334 356 28 106 137 149 27 178 13 168 135 102 90 26 56 36 40 34 46 84 25 347 42 113 31 4 343 19 32 2 4 2 235
264 267 266 274 272 256 270 302 303 311 328 349 341 318 317 356 97 144 154 66 232 106 189 120 101 89 91 64 45 22 51 48 14 43 78 70 235 26 350 101 265 341 80 139 242 270 281
257 264 260 263 264 251 259 274 296 304 329 354 326 299 273 345 172 160 167 134 254 176 146 145 70 111 144 179 125 99 58 126 13 31 131 108 277 345 58 49 26 343 73 170 146 246 314
253 256 255 255 257 254 253 264 285 294 334 355 306 283 251 284 142 162 103 236 169 122 115 113 160 168 168 184 149 121 179 232 160 50 152 204 26 274 121 49 39 98 155 113 38 339 284
250 255 249 250 254 255 262 273 283 296 352 348 295 269 245 184 176 191 194 196 165 159 139 149 160 128 158 160 147 170 179 314 186 119 135 124 101 276 120 25 131 50 23 49 117 149 212
245 252 248 245 253 259 263 259 264 295 341 322 272 292 218 181 135 60 167 166 140 147 133 106 100 112 157 157 140 163 188 201 173 162 159 178 146 202 18 38 52 84 162 129 130 254 215
250 249 248 246 239 248 258 263 262 273 327 319 254 232 212 188 217 185 180 86 141 147 151 135 118 124 128 150 118 149 144 124 161 146 164 189 222 31 328 345 30 159 189 128 101 87 216
252 247 248 253 242 244 248 250 237 256 293 283 273 296 190 192 174 144 158 189 167 115 105 110 123 100 105 114 43 168 139 160 133 130 127 135 129 173 196 194 123 174 185 180 147 140 199
250 254 250 256 257 246 247 251 238 240 177 213 217 230 183 233 215 165 140 144 144 170 112 149 103 204 159 121 101 178 143 130 132 104 74 113 198 172 264 113 110 209 191 183 200 197 182
263 268 252 252 255 251 242 236 225 226 185 209 224 178 170 167 155 121 246 215 169 154 147 206 192 150 172 156 186 188 133 186 189 106 91 4 188 97 312 66 189 258 231 209 216 208 266
262 262 252 254 253 252 239 228 220 226 199 211 219 218 218 169 153 138 217 187 186 134 181 88 161 118 142 164 115 105 110 108 129 143 129 101 132 92 263 4 355 297 214 190 191 204 160
258 265 259 251 253 246 239 231 223 208 206 220 234 209 201 226 180 208 163 137 151 158 142 108 151 115 140 126 103 89 77 81 83 51 106 126 97 81 205 19 331 250 200 206 184 215 217
255 266 262 253 256 235 239 240 229 214 215 227 232 230 217 187 162 171 153 116 104 94 87 103 100 175 146 128 78 57 3 23 32 46 38 62 115 93 148 197 291 322 201 171 168 260 202
252 263 254 250 251 235 237 241 219 198 216 233 231 239 228 143 222 142 141 167 145 120 77 87 104 147 160 98 110 165 202 188 236 138 85 73 73 117 125 164 226 239 212 154 129 290 202
244 248 249 242 220 230 239 234 213 188 222 229 247 231 218 226 177 169 168 178 156 133 107 129 145 179 184 122 132 178 230 151 185 181 169 140 71 196 190 231 286 216 156 145 100 239 181
239 245 226 216 216 232 237 218 194 205 220 233 234 222 209 221 191 196 187 161 157 166 150 149 113 192 132 179 180 202 172 210 162 171 177 167 161 189 96 127 275 151 115 170 221 141 172
242 230 217 211 221 227 222 206 189 214 203 226 225 223 220 227 164 200 201 198 197 179 150 168 179 154 167 141 204 111 176 153 169 243 347 228 193 177 190 212 129 182 231 202 168 163 176
Height
1520 1518 1517 1516 1515 1515 1515 1514 1512 1510 1507 1505 1502 1499 1496 1493 1490 1487 1485 1482 1480 1479 1480 1484 1485 1485 1486 1488 1495 1493 1490 1488 1488 1489 1489 1490 1492 1494 1498 1501 1502 1505 1508 1509 1511 1511 1513
1520 1519 1518 1517 1516 1515 1515 1514 1512 1511 1508 1506 1503 1501 1498 1495 1492 1489 1488 1485 1484 1485 1486 1487 1488 1487 1487 1493 1496 1493 1490 1489 1488 1489 1490 1491 1493 1494 1498 1501 1504 1506 1508 1511 1512 1513 1514
1521 1519 1518 1517 1516 1516 1515 1514 1512 1510 1509 1506 1504 1501 1498 1496 1493 1491 1490 1489 1487 1488 1489 1489 1488 1489 1489 1499 1496 1494 1490 1488 1490 1490 1491 1493 1494 1496 1499 1503 1505 1506 1509 1512 1516 1517 1519
1521 1519 1517 1517 1517 1516 1515 1514 1512 1510 1508 1507 1504 1502 1499 1497 1494 1492 1492 1492 1491 1490 1490 1491 1491 1490 1496 1499 1497 1493 1490 1488 1490 1492 1493 1494 1496 1497 1501 1505 1508 1513 1515 1523 1522 1520 1520
1520 1519 1518 1516 1516 1516 1515 1515 1513 1511 1509 1506 1504 1502 1500 1498 1496 1494 1493 1493 1493 1492 1492 1492 1492 1491 1499 1500 1494 1494 1491 1490 1491 1492 1494 1496 1498 1505 1506 1511 1523 1527 1530 1528 1527 1527 1525
1521 1519 1518 1517 1516 1516 1515 1514 1513 1511 1510 1506 1504 1501 1499 1499 1498 1496 1495 1496 1494 1494 1493 1493 1494 1498 1504 1505 1498 1495 1493 1492 1493 1494 1496 1500 1507 1517 1520 1522 1538 1539 1535 1535 1532 1529 1530
1519 1518 1517 1516 1515 1515 1514 1513 1513 1511 1510 1507 1503 1501 1499 1498 1498 1497 1496 1496 1499 1498 1496 1502 1506 1506 1507 1506 1503 1496 1494 1494 1495 1496 1507 1511 1519 1531 1533 1530 1536 1540 1546 1546 1533 1528 1533
1518 1517 1516 1515 1515 1514 1514 1514 1512 1510 1509 1506 1503 1501 1499 1497 1496 1496 1496 1495 1495 1500 1505 1508 1508 1509 1509 1507 1504 1501 1499 1498 1503 1510 1512 1521 1529 1529 1529 1531 1531 1533 1546 1541 1531 1528 1528
1516 1516 1515 1514 1513 1513 1513 1512 1512 1510 1507 1507 1503 1501 1498 1497 1495 1495 1495 1495 1495 1497 1503 1512 1511 1511 1512 1511 1512 1510 1508 1510 1512 1516 1518 1523 1529 1528 1529 1533 1532 1533 1543 1536 1540 1529 1527
1515 1513 1514 1512 1511 1512 1512 1511 1510 1510 1507 1506 1505 1500 1498 1497 1498 1494 1495 1496 1496 1497 1506 1515 1513 1514 1513 1511 1515 1515 1512 1513 1514 1520 1522 1527 1528 1528 1530 1531 1534 1533 1531 1532 1530 1534 1539
1512 1511 1511 1511 1510 1510 1510 1510 1509 1509 1506 1502 1503 1501 1499 1496 1496 1494 1496 1497 1499 1500 1509 1516 1514 1516 1515 1514 1517 1518 1516 1514 1519 1521 1522 1530 1529 1530 1532 1533 1533 1534 1530 1528 1527 1532 1537
1510 1510 1509 1508 1508 1507 1508 1509 1508 1507 1505 1502 1499 1500 1499 1497 1496 1495 1495 1499 1502 1505 1512 1514 1514 1516 1517 1518 1520 1520 1517 1517 1521 1522 1524 1529 1529 1531 1532 1530 1530 1531 1528 1527 1531 1540 1564
1507 1507 1508 1507 1505 1505 1506 1506 1507 1505 1503 1501 1498 1497 1498 1497 1498 1497 1496 1502 1507 1505 1513 1513 1514 1515 1519 1522 1524 1525 1528 1529 1531 1532 1539 1533 1532 1534 1533 1533 1531 1533 1536 1547 1545 1548 1545
1503 1504 1504 1504 1505 1503 1503 1503 1504 1504 1502 1498 1497 1496 1497 1497 1497 1497 1500 1503 1500 1503 1508 1512 1513 1516 1522 1525 1528 1530 1531 1535 1533 1534 1542 1542 1538 1536 1536 1537 1539 1537 1538 1563 1583 1561 1545
1499 1499 1501 1501 1501 1501 1501 1500 1502 1502 1500 1496 1496 1495 1494 1495 1495 1496 1501 1506 1493 1500 1504 1509 1514 1519 1525 1525 1528 1533 1538 1537 1537 1537 1549 1554 1542 1537 1537 1537 1539 1539 1546 1552 1567 1556 1551
1493 1495 1495 1497 1498 1498 1496 1496 1498 1500 1498 1495 1496 1494 1493 1493 1494 1496 1499 1496 1503 1502 1505 1507 1505 1515 1524 1525 1526 1531 1536 1537 1536 1536 1538 1547 1559 1539 1538 1540 1541 1543 1550 1557 1564 1584 1562
1488 1489 1490 1492 1493 1494 1493 1493 1493 1498 1494 1494 1495 1493 1491 1493 1494 1495 1499 1500 1502 1501 1503 1508 1512 1516 1519 1523 1526 1531 1535 1537 1535 1537 1539 1543 1552 1544 1539 1548 1549 1549 1564 1567 1572 1576 1578
1482 1484 1485 1486 1489 1490 1490 1489 1492 1493 1492 1492 1493 1494 1491 1492 1495 1498 1500 1498 1499 1502 1503 1506 1509 1513 1518 1522 1525 1529 1532 1532 1534 1536 1541 1542 1555 1558 1552 1555 1552 1554 1568 1575 1571 1575 1577
1475 1479 1480 1480 1483 1486 1486 1486 1487 1489 1489 1490 1490 1489 1490 1491 1492 1498 1498 1499 1498 1499 1501 1505 1509 1509 1514 1519 1533 1525 1529 1532 1533 1535 1539 1540 1551 1568 1552 1560 1552 1557 1562 1569 1579 1588 1585
1468 1472 1475 1476 1476 1480 1481 1480 1483 1484 1485 1488 1490 1487 1487 1487 1487 1490 1495 1496 1499 1498 1499 1502 1508 1510 1514 1519 1523 1530 1529 1531 1533 1534 1536 1537 1560 1552 1553 1545 1553 1558 1555 1559 1566 1585 1583
1463 1466 1469 1470 1472 1473 1475 1476 1478 1480 1480 1485 1485 1483 1483 1484 1486 1487 1489 1491 1495 1498 1499 1501 1507 1507 1513 1530 1523 1522 1525 1530 1533 1534 1536 1538 1551 1551 1553 1555 1552 1554 1549 1554 1557 1561 1559
1457 1461 1462 1464 1465 1467 1469 1470 1474 1474 1474 1480 1480 1480 1482 1484 1484 1487 1490 1491 1488 1494 1495 1500 1503 1504 1509 1516 1512 1520 1522 1528 1528 1535 1539 1542 1553 1558 1560 1554 1554 1558 1552 1552 1553 1557 1558
1453 1454 1456 1458 1459 1461 1464 1465 1468 1470 1472 1474 1475 1475 1478 1481 1483 1486 1482 1481 1483 1487 1495 1495 1497 1505 1510 1510 1511 1512 1516 1518 1521 1529 1543 1550 1556 1566 1568 1559 1562 1552 1538 1536 1540 1545 1544
1448 1448 1451 1451 1453 1456 1459 1460 1462 1463 1467 1470 1472 1473 1476 1474 1476 1478 1478 1480 1483 1486 1491 1495 1498 1502 1511 1511 1513 1517 1520 1523 1525 1530 1532 1550 1558 1572 1575 1573 1568 1521 1528 1526 1526 1528 1528
1442 1443 1445 1446 1448 1450 1456 1455 1457 1458 1462 1465 1468 1471 1469 1470 1470 1475 1477 1480 1485 1488 1492 1495 1499 1501 1506 1510 1519 1528 1528 1529 1531 1534 1535 1535 1551 1572 1565 1579 1535 1523 1521 1524 1524 1512 1506
1435 1437 1440 1441 1443 1446 1449 1450 1453 1453 1458 1459 1464 1466 1466 1465 1465 1466 1475 1477 1483 1489 1495 1498 1500 1504 1508 1510 1515 1522 1519 1518 1532 1534 1538 1539 1542 1551 1580 1564 1540 1505 1509 1510 1512 1522 1488
1428 1430 1434 1437 1438 1441 1445 1446 1449 1451 1454 1456 1458 1460 1463 1461 1462 1464 1467 1471 1474 1480 1488 1495 1501 1506 1507 1510 1514 1518 1520 1524 1521 1522 1532 1536 1550 1544 1553 1557 1526 1503 1505 1510 1527 1499 1479
1421 1423 1425 1431 1434 1439 1441 1441 1445 1449 1450 1451 1454 1456 1459 1457 1459 1461 1463 1464 1468 1472 1478 1488 1498 1502 1506 1508 1504 1504 1515 1515 1516 1511 1514 1514 1528 1538 1558 1562 1520 1498 1508 1506 1485 1478 1481
1415 1418 1420 1427 1432 1435 1437 1440 1443 1443 1445 1449 1452 1454 1455 1457 1458 1460 1462 1463 1466 1467 1470 1478 1477 1478 1484 1492 1497 1500 1502 1513 1506 1500 1509 1506 1497 1501 1505 1497 1486 1485 1479 1480 1481 1482 1484